Weather History for Saguache, CO

Change the Weather History Date:

Sunday, June 16, 2013

  Actual Average (KALS) Record (KALS)
Temperature  
Mean Temperature 58 °F 60 °F  
Max Temperature 71 °F 79 °F 87 °F (1950)
Min Temperature 44 °F 41 °F 26 °F (1981)
Degree Days  
Heating Degree Days 8 5  
Month to date heating degree days 117  
Since 1 June heating degree days 117  
Since 1 July heating degree days 8543  
Cooling Degree Days 0 0  
Month to date cooling degree days 0  
Year to date cooling degree days 0  
Since 1 June cooling degree days 0  
Growing Degree Days 8 (Base 50)    
Moisture  
Dew Point 36 °F    
Average Humidity 47    
Maximum Humidity 76    
Minimum Humidity 23    
Precipitation  
Precipitation 0.05 in 0.01 in 1.02 in (1969)
Month to date precipitation 0.23  
Year to date precipitation 2.45  
Snow  
Snow 0.00 in 0.00 in 0.00 in (2002)
Month to date snowfall 0.0  
Since 1 June snowfall 0.0  
Since 1 July snowfall 27.6  
Snow Depth -    
Sea Level Pressure  
Sea Level Pressure 30.33 in    
Wind  
Wind Speed 11 mph (NNW)    
Max Wind Speed 34 mph    
Max Gust Speed 45 mph    
Visibility 10 miles    
Events Rain , Thunderstorm    
T = Trace of Precipitation, MM = Missing Value Source: NWS Daily Summary

Daily Weather History Graph

Daily Weather History Graph

Search for Another Location

Airport:

Trip Planner

Search our weather history database for the weather conditions in past years. The results will help you decide how hot, cold, wet, or windy it might be!

Date:

Astronomy

Jun. 16, 2013 Rise Set
Actual Time 5:41 AM MDT 8:29 PM MDT
Civil Twilight 5:09 AM MDT 9:01 PM MDT
Nautical Twilight 4:30 AM MDT 9:40 PM MDT
Astronomical Twilight 3:45 AM MDT 10:25 PM MDT
Moon 1:13 PM MDT (6/16) 12:42 AM MDT (6/16)
Length of Visible Light 15h 51m
Length of Day
14h 48m
Waxing Crescent, 50% of the Moon is Illuminated
Jun 16
Waxing Crescent
Jun 23
Full
Jun 29
Last Quarter
Jul 8
New
Jul 15
First Quarter

Hourly Weather History & Observations

Time (MDT) Temp. Windchill Dew Point Humidity Pressure Visibility Wind Dir Wind Speed Gust Speed Precip Events Conditions
12:14 AM 55.4 °F - 33.8 °F 44% 30.32 in 10.0 mi NW 11.5 mph - N/A   Scattered Clouds
12:35 AM 55.4 °F - 33.8 °F 44% 30.31 in 10.0 mi NW 15.0 mph - N/A   Clear
12:55 AM 53.6 °F - 35.6 °F 51% 30.32 in 10.0 mi NNW 10.4 mph - N/A   Clear
1:15 AM 51.8 °F - 35.6 °F 54% 30.32 in 10.0 mi NW 11.5 mph - N/A   Clear
1:35 AM 51.8 °F - 33.8 °F 50% 30.32 in 10.0 mi NNW 10.4 mph - N/A   Clear
1:55 AM 53.6 °F - 32.0 °F 44% 30.31 in 10.0 mi NNW 10.4 mph - N/A   Clear
2:15 AM 50.0 °F - 32.0 °F 50% 30.31 in 10.0 mi NNW 11.5 mph - N/A   Clear
2:35 AM 48.2 °F - 32.0 °F 54% 30.31 in 10.0 mi NNW 11.5 mph - N/A   Clear
2:55 AM 50.0 °F - 32.0 °F 50% 30.30 in 10.0 mi NNW 9.2 mph - N/A   Clear
3:15 AM 48.2 °F - 32.0 °F 54% 30.30 in 10.0 mi NNW 4.6 mph - N/A   Clear
3:35 AM 48.2 °F - 32.0 °F 54% 30.30 in 10.0 mi NW 9.2 mph - N/A   Clear
3:55 AM 48.2 °F - 32.0 °F 54% 30.30 in 10.0 mi Calm Calm - N/A   Clear
4:14 AM 50.0 °F - 30.2 °F 47% 30.30 in 10.0 mi NW 9.2 mph - N/A   Clear
4:35 AM 48.2 °F - 30.2 °F 50% 30.31 in 10.0 mi NW 11.5 mph - N/A   Clear
4:55 AM 46.4 °F 40.7 °F 30.2 °F 53% 30.31 in 10.0 mi NW 12.7 mph - N/A   Clear
5:15 AM 46.4 °F 40.4 °F 30.2 °F 53% 30.31 in 10.0 mi NW 13.8 mph - N/A   Clear
5:35 AM 44.6 °F 40.2 °F 30.2 °F 57% 30.33 in 10.0 mi North 8.1 mph - N/A   Clear
5:54 AM 46.4 °F 41.1 °F 30.2 °F 53% 30.33 in 10.0 mi NNW 11.5 mph - N/A   Clear
6:15 AM 46.4 °F 42.4 °F 30.2 °F 53% 30.33 in 10.0 mi NNW 8.1 mph - N/A   Clear
6:35 AM 48.2 °F - 30.2 °F 50% 30.33 in 10.0 mi NNW 12.7 mph - N/A   Clear
6:55 AM 51.8 °F - 30.2 °F 44% 30.33 in 10.0 mi NNW 11.5 mph - N/A   Clear
7:14 AM 51.8 °F - 30.2 °F 44% 30.34 in 10.0 mi NNW 11.5 mph - N/A   Clear
7:35 AM 57.2 °F - 30.2 °F 36% 30.34 in 10.0 mi North 8.1 mph - N/A   Clear
7:55 AM 59.0 °F - 30.2 °F 34% 30.34 in 10.0 mi North 6.9 mph - N/A   Clear
8:15 AM 60.8 °F - 30.2 °F 31% 30.34 in 10.0 mi Calm Calm - N/A   Clear
8:35 AM 60.8 °F - 35.6 °F 39% 30.35 in 10.0 mi SSW 5.8 mph - N/A   Clear
8:55 AM 60.8 °F - 33.8 °F 36% 30.35 in 10.0 mi SSE 3.5 mph - N/A   Clear
9:15 AM 62.6 °F - 32.0 °F 32% 30.35 in 10.0 mi South 4.6 mph - N/A   Clear
9:34 AM 64.4 °F - 32.0 °F 30% 30.35 in 10.0 mi SSE 4.6 mph - N/A   Clear
9:55 AM 64.4 °F - 32.0 °F 30% 30.34 in 10.0 mi South 5.8 mph - N/A   Clear
10:15 AM 68.0 °F - 33.8 °F 28% 30.34 in 10.0 mi SSE 9.2 mph - N/A   Clear
10:34 AM 68.0 °F - 32.0 °F 26% 30.34 in 10.0 mi South 8.1 mph - N/A   Clear
10:55 AM 69.8 °F - 33.8 °F 27% 30.33 in 10.0 mi South 8.1 mph - N/A   Scattered Clouds
11:15 AM 69.8 °F - 32.0 °F 25% 30.32 in 10.0 mi SSE 6.9 mph - N/A   Scattered Clouds
11:35 AM 71.6 °F - 32.0 °F 23% 30.31 in 10.0 mi SSE 9.2 mph - N/A   Mostly Cloudy
11:54 AM 71.6 °F - 32.0 °F 23% 30.31 in 10.0 mi South 10.4 mph - N/A   Mostly Cloudy
12:15 PM 69.8 °F - 32.0 °F 25% 30.31 in 10.0 mi SW 5.8 mph - N/A Thunderstorm Mostly Cloudy
12:35 PM 62.6 °F - 37.4 °F 39% 30.33 in 7.0 mi Calm Calm - N/A Rain Light Rain
12:55 PM 66.2 °F - 35.6 °F 32% 30.33 in 10.0 mi North 3.5 mph - N/A Thunderstorm Scattered Clouds
1:15 PM 64.4 °F - 42.8 °F 45% 30.34 in 10.0 mi West 12.7 mph - N/A Rain Rain
1:35 PM 66.2 °F - 39.2 °F 37% 30.34 in 7.0 mi SSE 9.2 mph 20.7 mph N/A Rain , Thunderstorm Light Thunderstorms and Rain
1:55 PM 68.0 °F - 35.6 °F 30% 30.33 in 10.0 mi SSE 5.8 mph - N/A   Scattered Clouds
2:15 PM 69.8 °F - 35.6 °F 28% 30.33 in 10.0 mi North 13.8 mph 20.7 mph N/A   Scattered Clouds
2:35 PM 71.6 °F - 35.6 °F 27% 30.33 in 10.0 mi NNE 9.2 mph - N/A   Scattered Clouds
2:55 PM 68.0 °F - 33.8 °F 28% 30.34 in 10.0 mi North 10.4 mph - N/A Thunderstorm Mostly Cloudy
3:14 PM 66.2 °F - 33.8 °F 30% 30.35 in 10.0 mi NNW 16.1 mph 28.8 mph N/A   Overcast
3:35 PM 66.2 °F - 35.6 °F 32% 30.34 in 10.0 mi NNE 15.0 mph 20.7 mph N/A Thunderstorm Thunderstorm
3:55 PM 66.2 °F - 35.6 °F 32% 30.33 in 10.0 mi NNE 17.3 mph 20.7 mph N/A   Scattered Clouds
4:15 PM 64.4 °F - 33.8 °F 32% 30.35 in 10.0 mi NW 18.4 mph - N/A   Mostly Cloudy
4:35 PM 59.0 °F - 39.2 °F 48% 30.33 in 10.0 mi NNW 24.2 mph 33.4 mph N/A   Light Drizzle
4:54 PM 59.0 °F - 39.2 °F 48% 30.37 in 10.0 mi NNW 34.5 mph 44.9 mph N/A Rain Rain
5:15 PM 57.2 °F - 41.0 °F 55% 30.36 in 10.0 mi NNW 28.8 mph 42.6 mph 0.01 in Rain Light Rain
5:35 PM 53.6 °F - 44.6 °F 72% 30.40 in 7.0 mi NNW 25.3 mph 33.4 mph 0.02 in Rain Rain
5:55 PM 51.8 °F - 42.8 °F 71% 30.30 in 10.0 mi NE 18.4 mph 27.6 mph 0.05 in   Mostly Cloudy
6:15 PM 55.4 °F - 46.4 °F 72% 30.31 in 10.0 mi NW 12.7 mph 25.3 mph N/A   Mostly Cloudy
6:35 PM 59.0 °F - 48.2 °F 67% 30.30 in 10.0 mi NNW 15.0 mph - N/A   Scattered Clouds
6:54 PM 62.6 °F - 46.4 °F 55% 30.29 in 10.0 mi NNW 11.5 mph - N/A   Clear
7:15 PM 60.8 °F - 44.6 °F 55% 30.29 in 10.0 mi NW 13.8 mph 20.7 mph N/A   Clear
7:35 PM 59.0 °F - 44.6 °F 59% 30.29 in 10.0 mi NNW 13.8 mph - N/A   Clear
7:55 PM 59.0 °F - 44.6 °F 59% 30.30 in 10.0 mi NNW 11.5 mph - N/A   Scattered Clouds
8:15 PM 57.2 °F - 44.6 °F 63% 30.31 in 10.0 mi NW 11.5 mph - N/A   Scattered Clouds
8:35 PM 57.2 °F - 41.0 °F 55% 30.31 in 10.0 mi NNW 11.5 mph - N/A   Clear
8:55 PM 57.2 °F - 41.0 °F 55% 30.31 in 10.0 mi North 9.2 mph - N/A   Clear
9:15 PM 53.6 °F - 41.0 °F 62% 30.32 in 10.0 mi NNW 6.9 mph - N/A   Clear
9:34 PM 53.6 °F - 42.8 °F 67% 30.32 in 10.0 mi NNW 9.2 mph - N/A   Clear
9:55 PM 50.0 °F - 41.0 °F 71% 30.33 in 10.0 mi North 4.6 mph - N/A   Clear
10:14 PM 50.0 °F - 41.0 °F 71% 30.34 in 10.0 mi North 4.6 mph - N/A   Clear
10:35 PM 50.0 °F - 41.0 °F 71% 30.34 in 10.0 mi NNW 8.1 mph - N/A   Clear
10:55 PM 50.0 °F - 41.0 °F 71% 30.33 in 10.0 mi North 10.4 mph - N/A   Clear
11:15 PM 51.8 °F - 41.0 °F 67% 30.34 in 10.0 mi NNW 17.3 mph 21.9 mph N/A   Scattered Clouds
11:35 PM 50.0 °F - 42.8 °F 76% 30.34 in 10.0 mi NW 12.7 mph - N/A   Clear
11:54 PM 50.0 °F - 42.8 °F 76% 30.34 in 10.0 mi WNW 6.9 mph 11.5 mph N/A   Clear